Jackson, TN

6:53 PM CST on December 07, 2016 (GMT -0600)
McKellar-Sipes Regional

Weather History for KMKL - March, 2012

Change the Weather History Date:

Sunday, March 18, 2012

  Actual Average Record
Temperature  
Mean Temperature 70 °F 52 °F  
Max Temperature 82 °F 63 °F 86 °F (1982)
Min Temperature 57 °F 40 °F 22 °F (1967)
Degree Days  
Heating Degree Days 0 14  
Month to date heating degree days 140 291  
Since 1 July heating degree days 2596 3175  
Cooling Degree Days 5 0  
Month to date cooling degree days 20 0  
Year to date cooling degree days 20 1  
Growing Degree Days 19 (Base 50)    
Moisture  
Dew Point 57 °F    
Average Humidity 71    
Maximum Humidity 100    
Minimum Humidity 42    
Precipitation  
Precipitation 0.00 in 0.16 in 2.40 in (1992)
Month to date precipitation 3.16 2.64  
Year to date precipitation 8.70 10.88  
Snow  
Snow 0.00 in 0.00 in T in (1960)
Month to date snowfall 0.0 0.2  
Since 1 July snowfall 3.3 4.4  
Snow Depth 0.00 in    
Sea Level Pressure  
Sea Level Pressure 30.11 in    
Wind  
Wind Speed 7 mph (South)    
Max Wind Speed 14 mph    
Max Gust Speed 18 mph    
Visibility 10 miles    
Events      
T = Trace of Precipitation, MM = Missing Value Source: NWS Daily Summary

Daily Weather History Graph

Daily Weather History Graph

Search for Another Location

Airport or City:

Trip Planner

Search our weather history database for the weather conditions in past years. The results will help you decide how hot, cold, wet, or windy it might be!

Date:

Astronomy

Mar. 18, 2012 Rise Set
Actual Time 7:01 AM CDT 7:06 PM CDT
Civil Twilight 6:36 AM CDT 7:31 PM CDT
Nautical Twilight 6:06 AM CDT 8:01 PM CDT
Astronomical Twilight 5:36 AM CDT 8:31 PM CDT
Moon 4:33 AM CDT (3/18) 3:39 PM CDT (3/18)
Length of Visible Light 12h 55m
Length of Day
12h 04m
Waning Crescent, 15% of the Moon is Illuminated
Mar 18
Waning Crescent
Mar 22
New
Mar 30
First Quarter
Apr 6
Full
Apr 13
Last Quarter

Hourly Weather History & Observations

Time (CDT) Temp. Heat Index Dew Point Humidity Pressure Visibility Wind Dir Wind Speed Gust Speed Precip Events Conditions
12:53 AM 59.0 °F - 57.9 °F 96% 30.11 in 9.0 mi Calm Calm - N/A   Clear
1:53 AM 57.9 °F - 57.0 °F 97% 30.10 in 10.0 mi SSE 4.6 mph - N/A   Clear
2:53 AM 60.1 °F - 57.0 °F 90% 30.10 in 10.0 mi Calm Calm - N/A   Clear
3:53 AM 64.9 °F - 57.0 °F 75% 30.08 in 10.0 mi South 6.9 mph - N/A   Clear
4:53 AM 64.9 °F - 57.0 °F 75% 30.09 in 10.0 mi South 10.4 mph - N/A   Clear
5:53 AM 64.0 °F - 57.0 °F 78% 30.11 in 10.0 mi South 5.8 mph - N/A   Clear
6:53 AM 63.0 °F - 57.0 °F 81% 30.14 in 10.0 mi South 4.6 mph - N/A   Clear
7:53 AM 64.0 °F - 57.9 °F 80% 30.16 in 10.0 mi South 4.6 mph - N/A   Clear
8:53 AM 68.0 °F - 60.1 °F 76% 30.18 in 10.0 mi South 9.2 mph - N/A   Clear
9:53 AM 72.0 °F - 62.1 °F 71% 30.19 in 10.0 mi SSW 10.4 mph - N/A   Clear
10:53 AM 75.0 °F - 61.0 °F 62% 30.19 in 10.0 mi SSW 6.9 mph - N/A   Clear
11:53 AM 78.1 °F - 61.0 °F 56% 30.17 in 10.0 mi SSW 8.1 mph - N/A   Clear
12:53 PM 81.0 °F 81.7 °F 61.0 °F 50% 30.14 in 10.0 mi WSW 8.1 mph - N/A   Mostly Cloudy
1:53 PM 80.1 °F 80.9 °F 60.1 °F 50% 30.12 in 10.0 mi SSW 9.2 mph - N/A   Scattered Clouds
2:53 PM 80.1 °F 80.7 °F 59.0 °F 48% 30.09 in 10.0 mi SW 9.2 mph - N/A   Mostly Cloudy
3:53 PM 80.1 °F 80.4 °F 57.0 °F 45% 30.07 in 10.0 mi South 9.2 mph - N/A   Mostly Cloudy
4:53 PM 81.0 °F 80.8 °F 55.9 °F 42% 30.06 in 10.0 mi South 8.1 mph - N/A   Partly Cloudy
5:53 PM 80.1 °F 80.1 °F 55.0 °F 42% 30.06 in 10.0 mi South 9.2 mph - N/A   Mostly Cloudy
6:53 PM 75.9 °F - 55.0 °F 48% 30.06 in 10.0 mi South 6.9 mph - N/A   Scattered Clouds
7:53 PM 73.0 °F - 54.0 °F 51% 30.07 in 10.0 mi South 4.6 mph - N/A   Clear
8:53 PM 72.0 °F - 52.0 °F 49% 30.08 in 10.0 mi South 4.6 mph - N/A   Clear
9:53 PM 71.1 °F - 53.1 °F 53% 30.08 in 10.0 mi South 4.6 mph - N/A   Clear
10:53 PM 71.1 °F - 54.0 °F 55% 30.07 in 10.0 mi South 4.6 mph - N/A   Clear
11:53 PM 72.0 °F - 55.0 °F 55% 30.06 in 10.0 mi South 5.8 mph - N/A   Clear